Meteo Giornale » Osservazioni meteo Stati Uniti (USA) » Grand Rapids
ore: 19:56 - Osservazioni Meteo Grand Rapids
Lat. 47° 13' N Lon. 93° 31' W Alt. 413 metri s.l.m.
23 °C
Sereno
Temp. 24 Ore
19 °C
27 °C
Sud
9.3 Km/h
Dew point 15 °C
Umidità 60 %
Visibilità 10 Km
Il sole sorge alle ore 06:32
Il sole tramonta alle ore 19:56
| Data e Ora | Cielo e Fenomeni | T °C | DP °C | Um. % | Pres. hPa | Vis. km | Vento km/h | |
|---|---|---|---|---|---|---|---|---|
| Oggi h: 19:56 | Sereno | 23 | 15 | 60 | 1012 | 10 | S 9.3 | |
| Oggi h: 18:56 | Sereno | 27 | 14 | 44 | 1011 | 10 | S/SO 7.4 | |
| Oggi h: 17:56 | Sereno | 27 | 13 | 42 | 1011 | 10 | SO 7.4 | |
| Oggi h: 16:56 | Sereno | 27 | 14 | 44 | 1011 | 10 | SO 11.1 | |
| Oggi h: 15:56 | Sereno | 27 | 15 | 47 | 1012 | 10 | O 13 | |
| Oggi h: 14:56 | Sereno | 26 | 14 | 47 | 1011 | 10 | O/NO 9.3 | |
| Oggi h: 13:56 | Sereno | 26 | 14 | 47 | 1012 | 10 | O 20.3 | |
| Oggi h: 12:56 | Sereno | 26 | 14 | 47 | 1012 | 10 | O/NO 11.1 | |
| Oggi h: 11:56 | Poco Nuvoloso | 25 | 18 | 65 | 1011 | 10 | O/NO 18.5 | |
| Oggi h: 11:37 | Nuvoloso | 24 | 18 | 69 | 1011 | 10 | O/NO 16.7 | |
| Oggi h: 11:27 | Molto Nuvoloso | 23 | 18 | 73 | 1011 | 10 | O/NO 18.5 | |
| Oggi h: 10:56 | Nuvoloso | 24 | 19 | 73 | 1010 | 10 | O/SO 11.1 | |
| Oggi h: 10:51 | Nuvoloso | 24 | 19 | 73 | 1010 | 10 | O 11.1 | |
| Oggi h: 10:38 | Molto Nuvoloso | 24 | 19 | 73 | 1011 | 10 | O/NO 18.5 | |
| Oggi h: 09:56 | Coperto | 22 | 20 | 88 | 1010 | 10 | O 13 | |
| Oggi h: 09:51 | Coperto | 22 | 20 | 88 | 1010 | 10 | O 9.3 | |
| Oggi h: 08:56 | Foschia | 20 | 19 | 93 | 1010 | 6 | S 9.3 | |
| Oggi h: 08:40 | Foschia | 20 | 19 | 93 | 1010 | 2 | S/SE 9.3 | |
| Oggi h: 08:30 | Foschia | 19 | 19 | 100 | 1010 | 2 | S/SE 7.4 | |
| Oggi h: 07:56 | Foschia | 19 | 19 | 100 | 1010 | 5 | N 5.5 | |
| Oggi h: 07:53 | Foschia | 19 | 19 | 100 | 1010 | 5 | N 5.5 | |
| Oggi h: 07:27 | Foschia | 19 | 19 | 100 | 1009 | 2 | S/SE 7.4 | |
| Oggi h: 06:56 | Foschia | 19 | 19 | 100 | 1009 | 3 | S/SE 9.3 | |
| Oggi h: 06:43 | Foschia | 19 | 19 | 100 | 1009 | 2 | SE 7.4 | |
| Oggi h: 06:22 | Foschia | 19 | 19 | 100 | 1009 | 6 | S/SE 9.3 | |
| Oggi h: 05:56 | Foschia | 19 | 19 | 100 | 1009 | 10 | SE 7.4 | |
| Oggi h: 04:56 | Coperto | 19 | 19 | 100 | 1008 | 10 | S/SE 9.3 | |
| Oggi h: 03:56 | Coperto | 19 | 19 | 100 | 1009 | 10 | N 0 | |
| Oggi h: 02:56 | Coperto | 19 | 18 | 93 | 1008 | 10 | S/SE 11.1 | |
| Oggi h: 01:56 | Coperto | 19 | 18 | 93 | 1008 | 10 | SE 13 | |
| Oggi h: 01:37 | Coperto | 19 | 18 | 93 | 1008 | 10 | N 11.1 | |
| Oggi h: 00:56 | Coperto | 19 | 18 | 93 | 1009 | 10 | E/SE 9.3 | |
| Ieri h: 23:56 | Coperto | 19 | 18 | 93 | 1010 | 10 | E 9.3 | |
| Ieri h: 22:56 | Coperto | 19 | 17 | 88 | 1011 | 10 | N 9.3 | |
| Ieri h: 22:32 | Coperto | 19 | 17 | 88 | 1011 | 13 | N 11.1 | |
| Ieri h: 21:56 | Coperto | 19 | 17 | 88 | 1011 | 10 | E/SE 11.1 | |
| Ieri h: 20:56 | Coperto | 19 | 17 | 88 | 1011 | 10 | N 9.3 | |



